Regional Weather Roundup
Issued by NWS Sterling, VA

Home | Current Version | Previous Version | Graphics & Text | Print | Product List | Glossary On
Versions: 1 2 3 4 5 6 7 8 9 10 11 12 13 14 15 16 17 18 19 20 21 22 23 24 25 26 27 28 29 30 31 32 33 34 35 36 37 38 39 40 41 42 43 44 45 46 47 48 49 50
662
ASUS41 KLWX 250911
RWRLWX

REGIONAL WEATHER ROUNDUP
NATIONAL WEATHER SERVICE BALTIMORE MD/WASHINGTON DC
500 AM EDT SUN JUN 25 2017

Note: "FAIR" indicates few or no clouds below 12,000 feet
with no significant weather and/or obstructions to visibility.
 TC=TEMPERATURE CELSIUS

 * =Non NWS site. Station does not report precipitation (e.g. rain,
    snow, etc.), thunder, or fog.

DCZ001-MDZ009-015-VAZ040>042-051-053>054-251000-
WASHINGTON METRO

CITY           SKY/WX    TMP DP  RH WIND       PRES   REMARKS
WASHINGTON NAT MOCLDY    73  61  65 N6        29.98R
DULLES         PTCLDY    65  59  81 CALM      29.98S
ANDREWS AFB    MOCLDY    65  60  82 CALM      29.97R
FT BELVOIR     MOCLDY    64  61  89 CALM      29.98R
QUANTICO       PTCLDY    69  65  86 W5        29.99R
COLLEGE PARK*  PTCLDY    64  60  88 CALM      29.97R
LEESBURG*      PTCLDY   N/A N/A N/A CALM      29.99S
MANASSAS*      PTCLDY    62  61  96 S3        29.99R
GAITHERSBURG*  CLEAR     63  59  87 CALM      29.99S

$$

MDZ006>007-011-014-251000-
BALTIMORE METRO

CITY           SKY/WX    TMP DP  RH WIND       PRES   REMARKS
BWI AIRPORT    PTCLDY    68  60  75 W5        29.96R
MD SCIENCE CTR   N/A     76  59  55 MISG      29.96R
ANNAPOLIS      CLEAR     71  61  70 W3        29.96R
FORT MEADE*    CLEAR     61  59  94 CALM      29.99R

$$

MDZ012-015-019>023-251000-
MARYLAND EASTERN SHORE

CITY           SKY/WX    TMP DP  RH WIND       PRES   REMARKS
OCEAN CITY     PTCLDY    67  66  97 CALM      29.96R
SALISBURY      PTCLDY    67  65  93 CALM      29.96R
BAY BRIDGE AP* CLEAR     73  63  68 NW5       29.96R
CAMBRIDGE*     PTCLDY    64  63  94 CALM      29.96S
EASTON*        PTCLDY    69  65  88 CALM      30.00R

$$

MDZ017>025-251000-
SOUTHERN MARYLAND

CITY           SKY/WX    TMP DP  RH WIND       PRES   REMARKS
PATUXENT RIVER MOCLDY    68  63  84 SW6       29.97R
ST INIGOES     MOCLDY    69  68  96 CALM      29.97R
LEONARDTOWN*   MOCLDY    68  63  83 CALM      29.99R

$$

MDZ003>005-251000-
NORTH CENTRAL MARYLAND

CITY           SKY/WX    TMP DP  RH WIND       PRES   REMARKS
FREDERICK*     CLOUDY    64  64 100 CALM      30.01S
HAGERSTOWN APT CLEAR     69  58  67 SW6       29.99S
WESTMINSTER*   PTCLDY    72  59  64 W5        29.99R

$$

MDZ501>502-251000-
WESTERN MARYLAND

CITY           SKY/WX    TMP DP  RH WIND       PRES   REMARKS
OAKLAND*       NOT AVBL
CUMBERLAND*    CLEAR     59  59 100 CALM      30.06S

$$

VAZ025>031-251000-
SHENANDOAH VALLEY

CITY           SKY/WX    TMP DP  RH WIND       PRES   REMARKS
WINCHESTER*    CLEAR     61  55  82 CALM      30.00F
FRONT ROYAL*   PTCLDY    63  59  88 S5        30.00S
LURAY*         CLEAR     61  59  94 SW3       30.03R
NEW MARKET*    CLEAR     58  57  94 CALM      30.03S
STAUNTON*      CLEAR     57  56  95 CALM      30.06S
WAYNESBORO*    CLEAR     58  57  97 CALM      30.05S

$$

WVZ021-048>050-054>055-251000-
EASTERN WEST VIRGINIA PANHANDLE

CITY           SKY/WX    TMP DP  RH WIND       PRES   REMARKS
MARTINSBURG    CLEAR     64  57  78 SW3       29.99S
PETERSBURG*    PTCLDY    59  58  96 CALM      30.05S

$$

VAZ036>039-050-251000-
CENTRAL FOOTHILLS

CITY           SKY/WX    TMP DP  RH WIND       PRES   REMARKS
CHARLOTTESVILL CLEAR     69  60  73 W3        30.00S
CULPEPER*      CLEAR     61  61 100 CALM      30.00R
ORANGE*        CLEAR     61  59  94 CALM      30.00R
GORDONSVILLE*  CLEAR     61  60  95 CALM      29.99R
WARRENTON*     MOCLDY    60  57  89 CALM      29.98S

$$

VAZ055>057-251000-
NORTH AND CENTRAL PIEDMONT

CITY           SKY/WX    TMP DP  RH WIND       PRES   REMARKS
FREDERICKSBRG* MOCLDY    69  64  84 CALM      29.98R
STAFFORD*      CLEAR     62  62 100 CALM      30.02S

$$

NCZ024-NYZ072-PAZ021-071-VAZ022-071-251000-
OTHER REGIONAL OBSERVATIONS

CITY           SKY/WX    TMP DP  RH WIND       PRES   REMARKS
NEW YORK CITY  CLEAR     70  58  65 VRB3      29.97R
PHILADELPHIA   PTCLDY    70  60  70 N6        29.95R
PITTSBURGH     MOCLDY    61  57  87 W3        30.02R
ROANOKE        CLEAR     64  58  80 CALM      30.08R
RICHMOND       PTCLDY    72  71  97 SW5       29.98R
RALEIGH        MOCLDY    70  69  97 CALM      30.02S

$$

ANZ530>537-251000-
MARINE OBSERVATIONS

STATION/POSITION TIME  TEMP    WIND        PRES
                       AIR SEA DIR/SP/G
                 (UTC) (F)     (DEG/KT/KT) (MB)
THOMAS PT LIGHT  0900   74 78  310/  7/  8   N/A
BALT KEY BRIDGE  0848   75     280/  6/  7 1014.1R
COVE POINT       0848   75     310/  6/  8 1015.4R
LEWISETTA        0848   74 79  330/  4/  5 1014.8R
SOLOMONS ISLAND  0848   72 78  250/  5/  5   N/A
PINEY POINT      0848          340/  9/ 10   N/A

$$





USA.gov is the U.S. government's official web portal to all federal, state and local government web resources and services.